Year,Month,Day,Hour,Minute,Value (Times are PST for temperature in C)
2016,08,25,00,00,18.40
2016,08,25,00,01,18.40
2016,08,25,00,02,18.40
2016,08,25,00,03,18.40
2016,08,25,00,04,18.30
2016,08,25,00,05,18.30
2016,08,25,00,06,18.30
2016,08,25,00,07,18.30
2016,08,25,00,08,18.30
2016,08,25,00,09,18.30
2016,08,25,00,10,18.30
2016,08,25,00,11,18.30
2016,08,25,00,12,18.30
2016,08,25,00,13,18.30
2016,08,25,00,14,18.30
2016,08,25,00,15,18.30
2016,08,25,00,16,18.30
2016,08,25,00,17,18.20
2016,08,25,00,18,18.20
2016,08,25,00,19,18.20
2016,08,25,00,20,18.20
2016,08,25,00,21,18.20
2016,08,25,00,22,18.20
2016,08,25,00,23,18.20
2016,08,25,00,24,18.20
2016,08,25,00,25,18.20
2016,08,25,00,26,18.20
2016,08,25,00,27,18.20
2016,08,25,00,28,18.20
2016,08,25,00,29,18.20
2016,08,25,00,30,18.10
2016,08,25,00,31,18.10
2016,08,25,00,32,18.10
2016,08,25,00,33,18.10
2016,08,25,00,34,18.10
2016,08,25,00,35,18.10
2016,08,25,00,36,18.10
2016,08,25,00,37,18.10
2016,08,25,00,38,18.10
2016,08,25,00,39,18.10
2016,08,25,00,40,17.90
2016,08,25,00,41,17.90
2016,08,25,00,42,17.90
2016,08,25,00,43,17.90
2016,08,25,00,44,17.90
2016,08,25,00,45,17.90
2016,08,25,00,46,17.90
2016,08,25,00,47,17.90
2016,08,25,00,48,17.90
2016,08,25,00,49,17.90
2016,08,25,00,50,17.90
2016,08,25,00,51,17.80
2016,08,25,00,52,17.80
2016,08,25,00,53,17.80
2016,08,25,00,54,17.80
2016,08,25,00,55,17.80
2016,08,25,00,56,17.80
2016,08,25,00,57,17.80
2016,08,25,00,58,17.90
2016,08,25,00,59,17.90
2016,08,25,01,00,17.90
2016,08,25,01,01,17.90
2016,08,25,01,02,17.90
2016,08,25,01,03,17.90
2016,08,25,01,04,17.90
2016,08,25,01,05,17.90
2016,08,25,01,06,17.80
2016,08,25,01,07,17.80
2016,08,25,01,08,17.80
2016,08,25,01,09,17.80
2016,08,25,01,10,17.80
2016,08,25,01,11,17.70
2016,08,25,01,12,17.70
2016,08,25,01,13,17.70
2016,08,25,01,14,17.70
2016,08,25,01,15,17.70
2016,08,25,01,16,17.60
2016,08,25,01,17,17.60
2016,08,25,01,18,17.60
2016,08,25,01,19,17.60
2016,08,25,01,20,17.60
2016,08,25,01,21,17.60
2016,08,25,01,22,17.60
2016,08,25,01,23,17.60
2016,08,25,01,24,17.60
2016,08,25,01,25,17.60
2016,08,25,01,26,17.50
2016,08,25,01,27,17.50
2016,08,25,01,28,17.50
2016,08,25,01,29,17.50
2016,08,25,01,30,17.50
2016,08,25,01,31,17.50
2016,08,25,01,32,17.50
2016,08,25,01,33,17.50
2016,08,25,01,34,17.50
2016,08,25,01,35,17.50
2016,08,25,01,36,17.40
2016,08,25,01,37,17.40
2016,08,25,01,38,17.40
2016,08,25,01,39,17.40
2016,08,25,01,40,17.40
2016,08,25,01,41,17.40
2016,08,25,01,42,17.40
2016,08,25,01,43,17.40
2016,08,25,01,44,17.40
2016,08,25,01,45,17.40
2016,08,25,01,46,17.40
2016,08,25,01,47,17.40
2016,08,25,01,48,17.40
2016,08,25,01,49,17.40
2016,08,25,01,50,17.40
2016,08,25,01,51,17.40
2016,08,25,01,52,17.40
2016,08,25,01,53,17.40
2016,08,25,01,54,17.40
2016,08,25,01,55,17.40
2016,08,25,01,56,17.40
2016,08,25,01,57,17.40
2016,08,25,01,58,17.40
2016,08,25,01,59,17.30
2016,08,25,02,00,17.30
2016,08,25,02,01,17.40
2016,08,25,02,02,17.40
2016,08,25,02,03,17.40
2016,08,25,02,04,17.40
2016,08,25,02,05,17.40
2016,08,25,02,06,17.40
2016,08,25,02,07,17.40
2016,08,25,02,08,17.40
2016,08,25,02,09,17.40
2016,08,25,02,10,17.40
2016,08,25,02,11,17.40
2016,08,25,02,12,17.40
2016,08,25,02,13,17.40
2016,08,25,02,14,17.40
2016,08,25,02,15,17.40
2016,08,25,02,16,17.50
2016,08,25,02,17,17.50
2016,08,25,02,18,17.50
2016,08,25,02,19,17.50
2016,08,25,02,20,17.50
2016,08,25,02,21,17.50
2016,08,25,02,22,17.50
2016,08,25,02,23,17.50
2016,08,25,02,24,17.60
2016,08,25,02,25,17.60
2016,08,25,02,26,17.60
2016,08,25,02,27,17.60
2016,08,25,02,28,17.50
2016,08,25,02,29,17.50
2016,08,25,02,30,17.50
2016,08,25,02,31,17.50
2016,08,25,02,32,17.50
2016,08,25,02,33,17.50
2016,08,25,02,34,17.40
2016,08,25,02,35,17.40
2016,08,25,02,36,17.40
2016,08,25,02,37,17.40
2016,08,25,02,38,17.40
2016,08,25,02,39,17.40
2016,08,25,02,40,17.40
2016,08,25,02,41,17.40
2016,08,25,02,42,17.40
2016,08,25,02,43,17.30
2016,08,25,02,44,17.30
2016,08,25,02,45,17.30
2016,08,25,02,46,17.30
2016,08,25,02,47,17.30
2016,08,25,02,48,17.30
2016,08,25,02,49,17.30
2016,08,25,02,50,17.30
2016,08,25,02,51,17.30
2016,08,25,02,52,17.30
2016,08,25,02,53,17.30
2016,08,25,02,54,17.30
2016,08,25,02,55,17.20
2016,08,25,02,56,17.20
2016,08,25,02,57,17.20
2016,08,25,02,58,17.10
2016,08,25,02,59,17.10
2016,08,25,03,00,17.10
2016,08,25,03,01,17.00
2016,08,25,03,02,17.00
2016,08,25,03,03,17.00
2016,08,25,03,04,17.00
2016,08,25,03,05,16.90
2016,08,25,03,06,16.90
2016,08,25,03,07,16.90
2016,08,25,03,08,16.90
2016,08,25,03,09,16.90
2016,08,25,03,10,16.90
2016,08,25,03,11,16.90
2016,08,25,03,12,16.90
2016,08,25,03,13,16.90
2016,08,25,03,14,16.90
2016,08,25,03,15,16.90
2016,08,25,03,16,16.80
2016,08,25,03,17,16.80
2016,08,25,03,18,16.80
2016,08,25,03,19,16.80
2016,08,25,03,20,16.80
2016,08,25,03,21,16.90
2016,08,25,03,22,16.90
2016,08,25,03,23,17.00
2016,08,25,03,24,17.00
2016,08,25,03,25,17.10
2016,08,25,03,26,17.20
2016,08,25,03,27,17.30
2016,08,25,03,28,17.40
2016,08,25,03,29,17.50
2016,08,25,03,30,17.50
2016,08,25,03,31,17.60
2016,08,25,03,32,17.60
2016,08,25,03,33,17.70
2016,08,25,03,34,17.70
2016,08,25,03,35,17.70
2016,08,25,03,36,17.70
2016,08,25,03,37,17.70
2016,08,25,03,38,17.70
2016,08,25,03,39,17.70
2016,08,25,03,40,17.70
2016,08,25,03,41,17.70
2016,08,25,03,42,17.70
2016,08,25,03,43,17.60
2016,08,25,03,44,17.60
2016,08,25,03,45,17.50
2016,08,25,03,46,17.50
2016,08,25,03,47,17.50
2016,08,25,03,48,17.40
2016,08,25,03,49,17.40
2016,08,25,03,50,17.40
2016,08,25,03,51,17.30
2016,08,25,03,52,17.30
2016,08,25,03,53,17.30
2016,08,25,03,54,17.30
2016,08,25,03,55,17.20
2016,08,25,03,56,17.20
2016,08,25,03,57,17.10
2016,08,25,03,58,17.00
2016,08,25,03,59,17.00
2016,08,25,04,00,16.90
2016,08,25,04,01,16.90
2016,08,25,04,02,16.90
2016,08,25,04,03,16.80
2016,08,25,04,04,16.80
2016,08,25,04,05,16.80
2016,08,25,04,06,16.70
2016,08,25,04,07,16.70
2016,08,25,04,08,16.70
2016,08,25,04,09,16.70
2016,08,25,04,10,16.70
2016,08,25,04,11,16.70
2016,08,25,04,12,16.70
2016,08,25,04,13,16.70
2016,08,25,04,14,16.70
2016,08,25,04,15,16.70
2016,08,25,04,16,16.70
2016,08,25,04,17,16.70
2016,08,25,04,18,16.70
2016,08,25,04,19,16.70
2016,08,25,04,20,16.70
2016,08,25,04,21,16.70
2016,08,25,04,22,16.70
2016,08,25,04,23,16.70
2016,08,25,04,24,16.70
2016,08,25,04,25,16.70
2016,08,25,04,26,16.70
2016,08,25,04,27,16.70
2016,08,25,04,28,16.60
2016,08,25,04,29,16.60
2016,08,25,04,30,16.60
2016,08,25,04,31,16.60
2016,08,25,04,32,16.50
2016,08,25,04,33,16.40
2016,08,25,04,34,16.40
2016,08,25,04,35,16.40
2016,08,25,04,36,16.40
2016,08,25,04,37,16.40
2016,08,25,04,38,16.40
2016,08,25,04,39,16.40
2016,08,25,04,40,16.40
2016,08,25,04,41,16.40
2016,08,25,04,42,16.40
2016,08,25,04,43,16.40
2016,08,25,04,44,16.40
2016,08,25,04,45,16.40
2016,08,25,04,46,16.40
2016,08,25,04,47,16.30
2016,08,25,04,48,16.30
2016,08,25,04,49,16.30
2016,08,25,04,50,16.30
2016,08,25,04,51,16.30
2016,08,25,04,52,16.30
2016,08,25,04,53,16.30
2016,08,25,04,54,16.30
2016,08,25,04,55,16.30
2016,08,25,04,56,16.30
2016,08,25,04,57,16.40
2016,08,25,04,58,16.40
2016,08,25,04,59,16.50
2016,08,25,05,00,16.60
2016,08,25,05,01,16.70
2016,08,25,05,02,16.70
2016,08,25,05,03,16.70
2016,08,25,05,04,16.70
2016,08,25,05,05,16.80
2016,08,25,05,06,16.80
2016,08,25,05,07,16.80
2016,08,25,05,08,16.70
2016,08,25,05,09,16.70
2016,08,25,05,10,16.70
2016,08,25,05,11,16.60
2016,08,25,05,12,16.60
2016,08,25,05,13,16.50
2016,08,25,05,14,16.40
2016,08,25,05,15,16.40
2016,08,25,05,16,16.30
2016,08,25,05,17,16.20
2016,08,25,05,18,16.20
2016,08,25,05,19,16.10
2016,08,25,05,20,16.10
2016,08,25,05,21,16.00
2016,08,25,05,22,15.90
2016,08,25,05,23,15.90
2016,08,25,05,24,15.80
2016,08,25,05,25,15.80
2016,08,25,05,26,15.80
2016,08,25,05,27,15.80
2016,08,25,05,28,15.80
2016,08,25,05,29,15.70
2016,08,25,05,30,15.70
2016,08,25,05,31,15.70
2016,08,25,05,32,15.60
2016,08,25,05,33,15.60
2016,08,25,05,34,15.60
2016,08,25,05,35,15.60
2016,08,25,05,36,15.50
2016,08,25,05,37,15.50
2016,08,25,05,38,15.50
2016,08,25,05,39,15.50
2016,08,25,05,40,15.50
2016,08,25,05,41,15.40
2016,08,25,05,42,15.40
2016,08,25,05,43,15.40
2016,08,25,05,44,15.40
2016,08,25,05,45,15.30
2016,08,25,05,46,15.30
2016,08,25,05,47,15.30
2016,08,25,05,48,15.30
2016,08,25,05,49,15.30
2016,08,25,05,50,15.30
2016,08,25,05,51,15.30
2016,08,25,05,52,15.30
2016,08,25,05,53,15.30
2016,08,25,05,54,15.30
2016,08,25,05,55,15.30
2016,08,25,05,56,15.30
2016,08,25,05,57,15.30
2016,08,25,05,58,15.30
2016,08,25,05,59,15.30
2016,08,25,06,00,15.30
2016,08,25,06,01,15.30
2016,08,25,06,02,15.30
2016,08,25,06,03,15.30
2016,08,25,06,04,15.20
2016,08,25,06,05,15.20
2016,08,25,06,06,15.20
2016,08,25,06,07,15.20
2016,08,25,06,08,15.20
2016,08,25,06,09,15.20
2016,08,25,06,10,15.10
2016,08,25,06,11,15.10
2016,08,25,06,12,15.10
2016,08,25,06,13,15.10
2016,08,25,06,14,15.00
2016,08,25,06,15,15.00
2016,08,25,06,16,15.00
2016,08,25,06,17,15.00
2016,08,25,06,18,15.00
2016,08,25,06,19,15.00
2016,08,25,06,20,14.90
2016,08,25,06,21,14.90
2016,08,25,06,22,14.90
2016,08,25,06,23,14.90
2016,08,25,06,24,14.80
2016,08,25,06,25,14.80
2016,08,25,06,26,14.80
2016,08,25,06,27,14.80
2016,08,25,06,28,14.80
2016,08,25,06,29,14.80
2016,08,25,06,30,14.80
2016,08,25,06,31,14.80
2016,08,25,06,32,14.80
2016,08,25,06,33,14.70
2016,08,25,06,34,14.70
2016,08,25,06,35,14.70
2016,08,25,06,36,14.70
2016,08,25,06,37,14.70
2016,08,25,06,38,14.80
2016,08,25,06,39,14.80
2016,08,25,06,40,14.80
2016,08,25,06,41,14.80
2016,08,25,06,42,14.80
2016,08,25,06,43,14.80
2016,08,25,06,44,14.80
2016,08,25,06,45,14.80
2016,08,25,06,46,14.80
2016,08,25,06,47,14.80
2016,08,25,06,48,14.80
2016,08,25,06,49,14.80
2016,08,25,06,50,14.80
2016,08,25,06,51,14.80
2016,08,25,06,52,14.90
2016,08,25,06,53,14.90
2016,08,25,06,54,15.00
2016,08,25,06,55,15.10
2016,08,25,06,56,15.10
2016,08,25,06,57,15.20
2016,08,25,06,58,15.20
2016,08,25,06,59,15.20
2016,08,25,07,00,15.20
2016,08,25,07,01,15.30
2016,08,25,07,02,15.30
2016,08,25,07,03,15.30
2016,08,25,07,04,15.50
2016,08,25,07,05,15.60
2016,08,25,07,06,15.70
2016,08,25,07,07,15.80
2016,08,25,07,08,15.80
2016,08,25,07,09,15.80
2016,08,25,07,10,15.90
2016,08,25,07,11,15.90
2016,08,25,07,12,16.00
2016,08,25,07,13,16.10
2016,08,25,07,14,16.10
2016,08,25,07,15,16.10
2016,08,25,07,16,16.10
2016,08,25,07,17,16.20
2016,08,25,07,18,16.30
2016,08,25,07,19,16.30
2016,08,25,07,20,16.40
2016,08,25,07,21,16.40
2016,08,25,07,22,16.50
2016,08,25,07,23,16.60
2016,08,25,07,24,16.70
2016,08,25,07,25,16.70
2016,08,25,07,26,16.70
2016,08,25,07,27,16.80
2016,08,25,07,28,16.90
2016,08,25,07,29,16.90
2016,08,25,07,30,17.00
2016,08,25,07,31,17.00
2016,08,25,07,32,17.00
2016,08,25,07,33,17.10
2016,08,25,07,34,17.20
2016,08,25,07,35,17.30
2016,08,25,07,36,17.30
2016,08,25,07,37,17.40
2016,08,25,07,38,17.50
2016,08,25,07,39,17.60
2016,08,25,07,40,17.70
2016,08,25,07,41,17.90
2016,08,25,07,42,18.10
2016,08,25,07,43,18.20
2016,08,25,07,44,18.30
2016,08,25,07,45,18.30
2016,08,25,07,46,18.60
2016,08,25,07,47,18.80
2016,08,25,07,48,18.90
2016,08,25,07,49,19.10
2016,08,25,07,50,19.20
2016,08,25,07,51,19.30
2016,08,25,07,52,19.40
2016,08,25,07,53,19.50
2016,08,25,07,54,19.50
2016,08,25,07,55,19.60
2016,08,25,07,56,19.80
2016,08,25,07,57,19.90
2016,08,25,07,58,20.10
2016,08,25,07,59,20.20
2016,08,25,08,00,20.40
2016,08,25,08,01,20.50
2016,08,25,08,02,20.60
2016,08,25,08,03,20.80
2016,08,25,08,04,20.90
2016,08,25,08,05,21.00
2016,08,25,08,06,21.00
2016,08,25,08,07,21.10
2016,08,25,08,08,21.20
2016,08,25,08,09,21.30
2016,08,25,08,10,21.30
2016,08,25,08,11,21.40
2016,08,25,08,12,21.50
2016,08,25,08,13,21.60
2016,08,25,08,14,21.60
2016,08,25,08,15,21.70
2016,08,25,08,16,21.70
2016,08,25,08,17,21.80
2016,08,25,08,18,21.90
2016,08,25,08,19,22.00
2016,08,25,08,20,22.10
2016,08,25,08,21,22.10
2016,08,25,08,22,22.20
2016,08,25,08,23,22.30
2016,08,25,08,24,22.30
2016,08,25,08,25,22.40
2016,08,25,08,26,22.50
2016,08,25,08,27,22.50
2016,08,25,08,28,22.50
2016,08,25,08,29,22.60
2016,08,25,08,30,22.60
2016,08,25,08,31,22.60
2016,08,25,08,32,22.60
2016,08,25,08,33,22.60
2016,08,25,08,34,22.60
2016,08,25,08,35,22.60
2016,08,25,08,36,22.60
2016,08,25,08,37,22.50
2016,08,25,08,38,22.60
2016,08,25,08,39,22.60
2016,08,25,08,40,22.50
2016,08,25,08,41,22.50
2016,08,25,08,42,22.50
2016,08,25,08,43,22.50
2016,08,25,08,44,22.60
2016,08,25,08,45,22.60
2016,08,25,08,46,22.70
2016,08,25,08,47,22.70
2016,08,25,08,48,22.80
2016,08,25,08,49,22.80
2016,08,25,08,50,22.90
2016,08,25,08,51,22.90
2016,08,25,08,52,23.00
2016,08,25,08,53,23.10
2016,08,25,08,54,23.10
2016,08,25,08,55,23.20
2016,08,25,08,56,23.20
2016,08,25,08,57,23.20
2016,08,25,08,58,23.30
2016,08,25,08,59,23.30
2016,08,25,09,00,23.30
2016,08,25,09,01,23.30
2016,08,25,09,02,23.30
2016,08,25,09,03,23.30
2016,08,25,09,04,23.40
2016,08,25,09,05,23.40
2016,08,25,09,06,23.40
2016,08,25,09,07,23.50
2016,08,25,09,08,23.60
2016,08,25,09,09,23.60
2016,08,25,09,10,23.70
2016,08,25,09,11,23.70
2016,08,25,09,12,23.70
2016,08,25,09,13,23.80
2016,08,25,09,14,23.80
2016,08,25,09,15,23.80
2016,08,25,09,16,23.90
2016,08,25,09,17,23.90
2016,08,25,09,18,23.90
2016,08,25,09,19,23.90
2016,08,25,09,20,23.90
2016,08,25,09,21,24.00
2016,08,25,09,22,24.10
2016,08,25,09,23,24.10
2016,08,25,09,24,24.10
2016,08,25,09,25,24.10
2016,08,25,09,26,24.10
2016,08,25,09,27,24.20
2016,08,25,09,28,24.20
2016,08,25,09,29,24.20
2016,08,25,09,30,24.30
2016,08,25,09,31,24.40
2016,08,25,09,32,24.40
2016,08,25,09,33,24.40
2016,08,25,09,34,24.40
2016,08,25,09,35,24.40
2016,08,25,09,36,24.40
2016,08,25,09,37,24.30
2016,08,25,09,38,24.30
2016,08,25,09,39,24.40
2016,08,25,09,40,24.40
2016,08,25,09,41,24.40
2016,08,25,09,42,24.40
2016,08,25,09,43,24.50
2016,08,25,09,44,24.50
2016,08,25,09,45,24.50
2016,08,25,09,46,24.40
2016,08,25,09,47,24.40
2016,08,25,09,48,24.40
2016,08,25,09,49,24.40
2016,08,25,09,50,24.40
2016,08,25,09,51,24.40
2016,08,25,09,52,24.40
2016,08,25,09,53,24.30
2016,08,25,09,54,24.30
2016,08,25,09,55,24.30
2016,08,25,09,56,24.30
2016,08,25,09,57,24.30
2016,08,25,09,58,24.40
2016,08,25,09,59,24.40
2016,08,25,10,00,24.40
2016,08,25,10,01,24.50
2016,08,25,10,02,24.50
2016,08,25,10,03,24.50
2016,08,25,10,04,24.60
2016,08,25,10,05,24.60
2016,08,25,10,06,24.60
2016,08,25,10,07,24.60
2016,08,25,10,08,24.60
2016,08,25,10,09,24.60
2016,08,25,10,10,24.60
2016,08,25,10,11,24.60
2016,08,25,10,12,24.60
2016,08,25,10,13,24.70
2016,08,25,10,14,24.60
2016,08,25,10,15,24.60
2016,08,25,10,16,24.60
2016,08,25,10,17,24.60
2016,08,25,10,18,24.60
2016,08,25,10,19,24.70
2016,08,25,10,20,24.70
2016,08,25,10,21,24.80
2016,08,25,10,22,24.80
2016,08,25,10,23,24.90
2016,08,25,10,24,24.90
2016,08,25,10,25,25.00
2016,08,25,10,26,25.00
2016,08,25,10,27,25.10
2016,08,25,10,28,25.10
2016,08,25,10,29,25.10
2016,08,25,10,30,25.20
2016,08,25,10,31,25.20
2016,08,25,10,32,25.20
2016,08,25,10,33,25.20
2016,08,25,10,34,25.20
2016,08,25,10,35,25.20
2016,08,25,10,36,25.30
2016,08,25,10,37,25.30
2016,08,25,10,38,25.40
2016,08,25,10,39,25.50
2016,08,25,10,40,25.50
2016,08,25,10,41,25.60
2016,08,25,10,42,25.60
2016,08,25,10,43,25.70
2016,08,25,10,44,25.70
2016,08,25,10,45,25.80
2016,08,25,10,46,25.70
2016,08,25,10,47,25.70
2016,08,25,10,48,25.70
2016,08,25,10,49,25.70
2016,08,25,10,50,25.60
2016,08,25,10,51,25.60
2016,08,25,10,52,25.50
2016,08,25,10,53,25.50
2016,08,25,10,54,25.50
2016,08,25,10,55,25.50
2016,08,25,10,56,25.50
2016,08,25,10,57,25.40
2016,08,25,10,58,25.50
2016,08,25,10,59,25.50
2016,08,25,11,00,25.50
2016,08,25,11,01,25.60
2016,08,25,11,02,25.70
2016,08,25,11,03,25.70
2016,08,25,11,04,25.80
2016,08,25,11,05,25.80
2016,08,25,11,06,25.90
2016,08,25,11,07,25.90
2016,08,25,11,08,26.00
2016,08,25,11,09,26.00
2016,08,25,11,10,26.10
2016,08,25,11,11,26.00
2016,08,25,11,12,26.10
2016,08,25,11,13,26.20
2016,08,25,11,14,26.20
2016,08,25,11,15,26.20
2016,08,25,11,16,26.30
2016,08,25,11,17,26.30
2016,08,25,11,18,26.20
2016,08,25,11,19,26.20
2016,08,25,11,20,26.20
2016,08,25,11,21,26.30
2016,08,25,11,22,26.40
2016,08,25,11,23,26.50
2016,08,25,11,24,26.60
2016,08,25,11,25,26.60
2016,08,25,11,26,26.60
2016,08,25,11,27,26.60
2016,08,25,11,28,26.60
2016,08,25,11,29,26.60
2016,08,25,11,30,26.60
2016,08,25,11,31,26.60
2016,08,25,11,32,26.60
2016,08,25,11,33,26.60
2016,08,25,11,34,26.60
2016,08,25,11,35,26.60
2016,08,25,11,36,26.60
2016,08,25,11,37,26.60
2016,08,25,11,38,26.60
2016,08,25,11,39,26.60
2016,08,25,11,40,26.60
2016,08,25,11,41,26.60
2016,08,25,11,42,26.70
2016,08,25,11,43,26.70
2016,08,25,11,44,26.70
2016,08,25,11,45,26.70
2016,08,25,11,46,26.70
2016,08,25,11,47,26.70
2016,08,25,11,48,26.70
2016,08,25,11,49,26.70
2016,08,25,11,50,26.70
2016,08,25,11,51,26.80
2016,08,25,11,52,26.80
2016,08,25,11,53,26.80
2016,08,25,11,54,26.80
2016,08,25,11,55,26.80
2016,08,25,11,56,26.80
2016,08,25,11,57,26.80
2016,08,25,11,58,26.70
2016,08,25,11,59,26.60
2016,08,25,12,00,26.60
2016,08,25,12,01,26.60
2016,08,25,12,02,26.60
2016,08,25,12,03,26.60
2016,08,25,12,04,26.70
2016,08,25,12,05,26.70
2016,08,25,12,06,26.70
2016,08,25,12,07,26.70
2016,08,25,12,08,26.80
2016,08,25,12,09,26.80
2016,08,25,12,10,26.80
2016,08,25,12,11,26.80
2016,08,25,12,12,26.90
2016,08,25,12,13,26.90
2016,08,25,12,14,26.90
2016,08,25,12,15,27.00
2016,08,25,12,16,27.00
2016,08,25,12,17,27.00
2016,08,25,12,18,27.00
2016,08,25,12,19,27.10
2016,08,25,12,20,27.10
2016,08,25,12,21,27.10
2016,08,25,12,22,27.20
2016,08,25,12,23,27.20
2016,08,25,12,24,27.20
2016,08,25,12,25,27.20
2016,08,25,12,26,27.20
2016,08,25,12,27,27.20
2016,08,25,12,28,27.20
2016,08,25,12,29,27.20
2016,08,25,12,30,27.20
2016,08,25,12,31,27.30
2016,08,25,12,32,27.30
2016,08,25,12,33,27.40
2016,08,25,12,34,27.40
2016,08,25,12,35,27.50
2016,08,25,12,36,27.60
2016,08,25,12,37,27.60
2016,08,25,12,38,27.60
2016,08,25,12,39,27.60
2016,08,25,12,40,27.70
2016,08,25,12,41,27.60
2016,08,25,12,42,27.60
2016,08,25,12,43,27.50
2016,08,25,12,44,27.40
2016,08,25,12,45,27.30
2016,08,25,12,46,27.30
2016,08,25,12,47,27.30
2016,08,25,12,48,27.20
2016,08,25,12,49,27.20
2016,08,25,12,50,27.20
2016,08,25,12,51,27.20
2016,08,25,12,52,27.30
2016,08,25,12,53,27.30
2016,08,25,12,54,27.30
2016,08,25,12,55,27.30
2016,08,25,12,56,27.30
2016,08,25,12,57,27.30
2016,08,25,12,58,27.30
2016,08,25,12,59,27.30
2016,08,25,13,00,27.30
2016,08,25,13,01,27.30
2016,08,25,13,02,27.30
2016,08,25,13,03,27.30
2016,08,25,13,04,27.30
2016,08,25,13,05,27.30
2016,08,25,13,06,27.30
2016,08,25,13,07,27.30
2016,08,25,13,08,27.30
2016,08,25,13,09,27.40
2016,08,25,13,10,27.40
2016,08,25,13,11,27.40
2016,08,25,13,12,27.30
2016,08,25,13,13,27.30
2016,08,25,13,14,27.30
2016,08,25,13,15,27.30
2016,08,25,13,16,27.30
2016,08,25,13,17,27.20
2016,08,25,13,18,27.20
2016,08,25,13,19,27.20
2016,08,25,13,20,27.20
2016,08,25,13,21,27.30
2016,08,25,13,22,27.30
2016,08,25,13,23,27.30
2016,08,25,13,24,27.30
2016,08,25,13,25,27.30
2016,08,25,13,26,27.30
2016,08,25,13,27,27.30
2016,08,25,13,28,27.30
2016,08,25,13,29,27.40
2016,08,25,13,30,27.50
2016,08,25,13,31,27.60
2016,08,25,13,32,27.70
2016,08,25,13,33,27.70
2016,08,25,13,34,27.80
2016,08,25,13,35,27.90
2016,08,25,13,36,27.90
2016,08,25,13,37,27.90
2016,08,25,13,38,28.00
2016,08,25,13,39,28.00
2016,08,25,13,40,28.00
2016,08,25,13,41,28.00
2016,08,25,13,42,28.10
2016,08,25,13,43,28.10
2016,08,25,13,44,28.10
2016,08,25,13,45,28.10
2016,08,25,13,46,28.10
2016,08,25,13,47,28.20
2016,08,25,13,48,28.30
2016,08,25,13,49,28.30
2016,08,25,13,50,28.40
2016,08,25,13,51,28.30
2016,08,25,13,52,28.30
2016,08,25,13,53,28.20
2016,08,25,13,54,28.30
2016,08,25,13,55,28.30
2016,08,25,13,56,28.30
2016,08,25,13,57,28.30
2016,08,25,13,58,28.30
2016,08,25,13,59,28.30
2016,08,25,14,00,28.30
2016,08,25,14,01,28.30
2016,08,25,14,02,28.30
2016,08,25,14,03,28.30
2016,08,25,14,04,28.30
2016,08,25,14,05,28.30
2016,08,25,14,06,28.30
2016,08,25,14,07,28.30
2016,08,25,14,08,28.40
2016,08,25,14,09,28.40
2016,08,25,14,10,28.40
2016,08,25,14,11,28.30
2016,08,25,14,12,28.30
2016,08,25,14,13,28.30
2016,08,25,14,14,28.40
2016,08,25,14,15,28.40
2016,08,25,14,16,28.40
2016,08,25,14,17,28.30
2016,08,25,14,18,28.20
2016,08,25,14,19,28.10
2016,08,25,14,20,28.10
2016,08,25,14,21,28.00
2016,08,25,14,22,28.00
2016,08,25,14,23,27.90
2016,08,25,14,24,27.90
2016,08,25,14,25,27.80
2016,08,25,14,26,27.80
2016,08,25,14,27,27.80
2016,08,25,14,28,27.70
2016,08,25,14,29,27.70
2016,08,25,14,30,27.70
2016,08,25,14,31,27.80
2016,08,25,14,32,27.80
2016,08,25,14,33,27.90
2016,08,25,14,34,28.00
2016,08,25,14,35,28.00
2016,08,25,14,36,28.10
2016,08,25,14,37,28.10
2016,08,25,14,38,28.10
2016,08,25,14,39,28.10
2016,08,25,14,40,28.10
2016,08,25,14,41,28.20
2016,08,25,14,42,28.10
2016,08,25,14,43,28.20
2016,08,25,14,44,28.20
2016,08,25,14,45,28.20
2016,08,25,14,46,28.30
2016,08,25,14,47,28.40
2016,08,25,14,48,28.50
2016,08,25,14,49,28.60
2016,08,25,14,50,28.50
2016,08,25,14,51,28.40
2016,08,25,14,52,28.40
2016,08,25,14,53,28.30
2016,08,25,14,54,28.20
2016,08,25,14,55,28.20
2016,08,25,14,56,28.30
2016,08,25,14,57,28.30
2016,08,25,14,58,28.40
2016,08,25,14,59,28.50
2016,08,25,15,00,28.60
2016,08,25,15,01,28.60
2016,08,25,15,02,28.60
2016,08,25,15,03,28.60
2016,08,25,15,04,28.60
2016,08,25,15,05,28.60
2016,08,25,15,06,28.60
2016,08,25,15,07,28.50
2016,08,25,15,08,28.40
2016,08,25,15,09,28.40
2016,08,25,15,10,28.50
2016,08,25,15,11,28.60
2016,08,25,15,12,28.60
2016,08,25,15,13,28.50
2016,08,25,15,14,28.40
2016,08,25,15,15,28.40
2016,08,25,15,16,28.30
2016,08,25,15,17,28.20
2016,08,25,15,18,28.10
2016,08,25,15,19,28.10
2016,08,25,15,20,28.10
2016,08,25,15,21,28.10
2016,08,25,15,22,28.10
2016,08,25,15,23,28.20
2016,08,25,15,24,28.30
2016,08,25,15,25,28.40
2016,08,25,15,26,28.50
2016,08,25,15,27,28.60
2016,08,25,15,28,28.60
2016,08,25,15,29,28.70
2016,08,25,15,30,28.70
2016,08,25,15,31,28.80
2016,08,25,15,32,28.80
2016,08,25,15,33,28.80
2016,08,25,15,34,28.80
2016,08,25,15,35,28.80
2016,08,25,15,36,28.80
2016,08,25,15,37,28.80
2016,08,25,15,38,28.70
2016,08,25,15,39,28.70
2016,08,25,15,40,28.60
2016,08,25,15,41,28.60
2016,08,25,15,42,28.60
2016,08,25,15,43,28.60
2016,08,25,15,44,28.70
2016,08,25,15,45,28.80
2016,08,25,15,46,28.80
2016,08,25,15,47,28.90
2016,08,25,15,48,28.90
2016,08,25,15,49,28.90
2016,08,25,15,50,28.90
2016,08,25,15,51,28.90
2016,08,25,15,52,29.00
2016,08,25,15,53,29.10
2016,08,25,15,54,29.20
2016,08,25,15,55,29.30
2016,08,25,15,56,29.30
2016,08,25,15,57,29.30
2016,08,25,15,58,29.30
2016,08,25,15,59,29.30
2016,08,25,16,00,29.30
2016,08,25,16,01,29.40
2016,08,25,16,02,29.40
2016,08,25,16,03,29.50
2016,08,25,16,04,29.50
2016,08,25,16,05,29.60
2016,08,25,16,06,29.50
2016,08,25,16,07,29.50
2016,08,25,16,08,29.60
2016,08,25,16,09,29.60
2016,08,25,16,10,29.60
2016,08,25,16,11,29.70
2016,08,25,16,12,29.70
2016,08,25,16,13,29.70
2016,08,25,16,14,29.60
2016,08,25,16,15,29.50
2016,08,25,16,16,29.50
2016,08,25,16,17,29.50
2016,08,25,16,18,29.50
2016,08,25,16,19,29.50
2016,08,25,16,20,29.50
2016,08,25,16,21,29.50
2016,08,25,16,22,29.60
2016,08,25,16,23,29.60
2016,08,25,16,24,29.60
2016,08,25,16,25,29.50
2016,08,25,16,26,29.50
2016,08,25,16,27,29.50
2016,08,25,16,28,29.50
2016,08,25,16,29,29.60
2016,08,25,16,30,29.60
2016,08,25,16,31,29.60
2016,08,25,16,32,29.60
2016,08,25,16,33,29.70
2016,08,25,16,34,29.70
2016,08,25,16,35,29.70
2016,08,25,16,36,29.70
2016,08,25,16,37,29.80
2016,08,25,16,38,29.80
2016,08,25,16,39,29.80
2016,08,25,16,40,29.80
2016,08,25,16,41,29.80
2016,08,25,16,42,29.80
2016,08,25,16,43,29.90
2016,08,25,16,44,29.90
2016,08,25,16,45,29.90
2016,08,25,16,46,29.90
2016,08,25,16,47,29.90
2016,08,25,16,48,29.80
2016,08,25,16,49,29.80
2016,08,25,16,50,29.80
2016,08,25,16,51,29.80
2016,08,25,16,52,29.90
2016,08,25,16,53,29.90
2016,08,25,16,54,30.00
2016,08,25,16,55,30.10
2016,08,25,16,56,30.10
2016,08,25,16,57,30.20
2016,08,25,16,58,30.20
2016,08,25,16,59,30.10
2016,08,25,17,00,30.20
2016,08,25,17,01,30.20
2016,08,25,17,02,30.20
2016,08,25,17,03,30.30
2016,08,25,17,04,30.50
2016,08,25,17,05,30.60
2016,08,25,17,06,30.70
2016,08,25,17,07,30.80
2016,08,25,17,08,30.80
2016,08,25,17,09,30.80
2016,08,25,17,10,30.80
2016,08,25,17,11,30.80
2016,08,25,17,12,30.90
2016,08,25,17,13,30.90
2016,08,25,17,14,30.90
2016,08,25,17,15,31.10
2016,08,25,17,16,31.10
2016,08,25,17,17,31.20
2016,08,25,17,18,31.40
2016,08,25,17,19,31.40